Hourly Data Report for June 16, 2021

TOBERMORY RCS
ONTARIO
Current Station Operator: ECCC - MSC

45°14'00.000" N
81°38'00.000" W
213.50 m
6128330
71767
TTR

Download Data

Hourly Data (June 2021)
Hourly Data Report for June 16, 2021
TIME
LST
Temp Definition
°C
Dew Point Definition
°C
Rel Hum Definition
%
Precip. Amount Definition
mm

Wind Dir Definition
10's deg

Wind Spd Definition
km/h
Visibility Definition
km
Stn Press Definition
kPa
Hmdx Definition


Wind Chill Definition


Weather Definition


00:00 13.6 4.2 53 0.0 1 8   99.26     LegendNANA
01:00 13.2 4.6 56 0.0 3 7   99.27     LegendNANA
02:00 12.4 5.8 64 0.0 1 7   99.32     LegendNANA
03:00 12.2 5.7 64 0.0 2 8   99.32     LegendNANA
04:00 11.5 6.6 72 0.0 2 6   99.34     LegendNANA
05:00 11.0 6.6 74 0.0 2 5   99.36     LegendNANA
06:00 12.1 6.7 70 0.0 1 7   99.39     LegendNANA
07:00 13.0 6.3 64 0.0 2 9   99.40     LegendNANA
08:00 13.5 5.8 59 0.0 2 9   99.46     LegendNANA
09:00 13.8 2.6 47 0.0 2 10   99.47     LegendNANA
10:00 14.2 3.0 47 0.0 36 10   99.46     LegendNANA
11:00 15.3 4.0 47 0.0 31 13   99.41     LegendNANA
12:00 16.2 4.3 45 0.0 28 19   99.40     LegendNANA
13:00 15.3 3.9 47 0.0 29 20   99.33     LegendNANA
14:00 15.3 4.6 49 0.0 29 16   99.29     LegendNANA
15:00 16.4 5.3 48 0.0 29 17   99.24     LegendNANA
16:00 16.4 5.7 49 0.0 29 17   99.22     LegendNANA
17:00 16.1 5.4 49 0.0 29 18   99.16     LegendNANA
18:00 16.0 5.5 49 0.0 29 14   99.12     LegendNANA
19:00 15.8 5.0 49 0.0 30 10   99.08     LegendNANA
20:00 13.6 4.4 54 0.0 27 8   99.05     LegendNANA
21:00 11.6 6.2 70 0.0 23 5   99.08     LegendNANA
22:00 10.2 7.1 81 0.0 24 5   99.08     LegendNANA
23:00 10.4 8.1 86 0.0 22 5   99.08     LegendNANA

Notes on Data Quality.

Legend

  • E = Estimated
  • M = Missing
  • NA = Not Available*
  • [empty] = Indicates an unobserved value
Date modified: